Location: São Paulo
(23.5507°S, 46.6334°W)
Time: 10:57:51
(UTC-03:00)

Transit 4A - Pass Details

Date: 19 February 2026
Orbit: 864 x 977 km, 66.8° (Epoch: 11 March)

Event Time Altitude Azimuth Distance (km) Brightness Sun altitude
Rises 15:36:03 0° 309° (NW) 3,662 11.6 41.9°
Reaches altitude 10° 15:39:01 10° 297° (WNW) 2,715 11.3 41.2°
Maximum altitude 15:44:17 27° 241° (WSW) 1,767 10.6 40.0°
Drops below altitude 10° 15:49:31 10° 185° (S) 2,691 10.4 38.8°
Sets 15:52:29 0° 173° (S) 3,623 10.9 38.1°
